Time,TemperatureF,DewpointF,PressureIn,WindDirection,WindDirectionDegrees,WindSpeedMPH,WindSpeedGustMPH,Humidity,HourlyPrecipIn,Conditions,Clouds,dailyrainin,SolarRadiationWatts/m^2,SoftwareType,DateUTC
2013-09-09 07:41:00,71.0,67.9,29.75,South,184,5.0,5.0,90,0.00,,,0.01,32,Wunderground v.1.15,2013-09-09 12:41:00,
2013-09-09 07:51:00,71.4,68.0,29.75,South,173,4.0,8.0,89,0.00,,,0.01,37,Wunderground v.1.15,2013-09-09 12:51:00,
2013-09-09 08:00:00,71.6,67.9,29.75,South,169,4.0,8.0,88,0.00,,,0.01,42,Wunderground v.1.15,2013-09-09 13:00:00,
2013-09-09 08:10:00,72.2,68.4,29.75,South,190,4.0,4.0,88,0.00,,,0.01,47,Wunderground v.1.15,2013-09-09 13:10:00,
2013-09-09 08:21:00,72.8,68.7,29.76,South,178,5.0,8.0,87,0.00,,,0.01,79,Wunderground v.1.15,2013-09-09 13:21:00,
2013-09-09 08:31:00,73.5,69.1,29.76,SSW,192,6.0,8.0,86,0.00,,,0.01,199,Wunderground v.1.15,2013-09-09 13:31:00,
2013-09-09 08:40:00,74.6,69.4,29.76,South,190,6.0,9.0,84,0.00,,,0.01,232,Wunderground v.1.15,2013-09-09 13:40:00,
2013-09-09 08:50:00,75.7,69.8,29.76,SSW,196,6.0,6.0,82,0.00,,,0.01,255,Wunderground v.1.15,2013-09-09 13:50:00,
2013-09-09 09:01:00,77.3,69.5,29.76,SSW,198,6.0,11.0,77,0.00,,,0.01,281,Wunderground v.1.15,2013-09-09 14:01:00,
2013-09-09 09:11:00,78.7,68.9,29.76,SW,227,8.0,11.0,72,0.00,,,0.01,309,Wunderground v.1.15,2013-09-09 14:11:00,
2013-09-09 09:21:00,79.9,68.8,29.75,SW,221,7.0,13.0,69,0.00,,,0.01,341,Wunderground v.1.15,2013-09-09 14:21:00,
2013-09-09 09:30:00,81.1,68.7,29.76,SW,227,7.0,13.0,66,0.00,,,0.01,371,Wunderground v.1.15,2013-09-09 14:30:00,
2013-09-09 09:41:00,82.5,68.2,29.75,SW,226,7.0,13.0,62,0.00,,,0.01,401,Wunderground v.1.15,2013-09-09 14:41:00,
2013-09-09 09:51:00,83.7,66.8,29.76,SW,215,9.0,14.0,57,0.00,,,0.01,429,Wunderground v.1.15,2013-09-09 14:51:00,
2013-09-09 10:00:00,84.9,67.5,29.76,SW,233,9.0,9.0,56,0.00,,,0.01,457,Wunderground v.1.15,2013-09-09 15:00:00,
2013-09-09 10:11:00,86.0,66.9,29.76,WSW,241,8.0,16.0,53,0.00,,,0.01,483,Wunderground v.1.15,2013-09-09 15:11:00,
2013-09-09 10:21:00,86.4,66.1,29.75,WSW,248,9.0,9.0,51,0.00,,,0.01,510,Wunderground v.1.15,2013-09-09 15:21:00,
2013-09-09 10:31:00,87.5,66.6,29.75,SW,232,8.0,15.0,50,0.00,,,0.01,531,Wunderground v.1.15,2013-09-09 15:31:00,
2013-09-09 10:41:00,88.0,66.4,29.75,WSW,251,9.0,15.0,49,0.00,,,0.01,557,Wunderground v.1.15,2013-09-09 15:41:00,
2013-09-09 10:51:00,88.8,65.4,29.75,WSW,240,9.0,9.0,46,0.00,,,0.01,582,Wunderground v.1.15,2013-09-09 15:51:00,
2013-09-09 11:00:00,89.4,65.9,29.74,SW,217,11.0,11.0,46,0.00,,,0.01,599,Wunderground v.1.15,2013-09-09 16:00:00,
2013-09-09 11:10:00,90.3,66.1,29.74,SW,236,10.0,10.0,45,0.00,,,0.01,617,Wunderground v.1.15,2013-09-09 16:10:00,
2013-09-09 11:21:00,91.1,65.5,29.74,SSW,211,9.0,16.0,43,0.00,,,0.01,638,Wunderground v.1.15,2013-09-09 16:21:00,
2013-09-09 11:31:00,91.4,65.8,29.74,SSW,199,11.0,11.0,43,0.00,,,0.01,657,Wunderground v.1.15,2013-09-09 16:31:00,
2013-09-09 11:40:00,91.7,65.4,29.74,SW,235,10.0,18.0,42,0.00,,,0.01,671,Wunderground v.1.15,2013-09-09 16:40:00,
2013-09-09 11:51:00,92.5,66.7,29.74,SW,219,9.0,9.0,43,0.00,,,0.01,684,Wunderground v.1.15,2013-09-09 16:51:00,
2013-09-09 12:01:00,93.2,65.3,29.73,SSW,196,9.0,9.0,40,0.00,,,0.01,698,Wunderground v.1.15,2013-09-09 17:01:00,
2013-09-09 12:11:00,93.1,65.9,29.73,SW,227,9.0,14.0,41,0.00,,,0.01,707,Wunderground v.1.15,2013-09-09 17:11:00,
2013-09-09 12:20:00,93.8,66.5,29.73,SW,220,9.0,15.0,41,0.00,,,0.01,719,Wunderground v.1.15,2013-09-09 17:20:00,
2013-09-09 12:31:00,94.0,66.0,29.73,SW,228,10.0,15.0,40,0.00,,,0.01,726,Wunderground v.1.15,2013-09-09 17:31:00,
2013-09-09 12:41:00,94.2,66.2,29.73,West,275,11.0,19.0,40,0.00,,,0.01,735,Wunderground v.1.15,2013-09-09 17:41:00,
2013-09-09 12:51:00,94.9,66.1,29.73,SSE,150,10.0,19.0,39,0.00,,,0.01,738,Wunderground v.1.15,2013-09-09 17:51:00,
2013-09-09 13:00:00,94.2,66.9,29.73,SSW,200,10.0,10.0,41,0.00,,,0.01,744,Wunderground v.1.15,2013-09-09 18:00:00,
2013-09-09 13:11:00,95.0,66.2,29.73,SSW,211,11.0,11.0,39,0.00,,,0.01,744,Wunderground v.1.15,2013-09-09 18:11:00,
2013-09-09 13:21:00,95.1,66.2,29.73,South,191,10.0,20.0,39,0.00,,,0.01,740,Wunderground v.1.15,2013-09-09 18:21:00,
2013-09-09 13:31:00,95.7,66.0,29.73,SW,220,10.0,21.0,38,0.00,,,0.01,744,Wunderground v.1.15,2013-09-09 18:31:00,
2013-09-09 13:40:00,96.1,65.6,29.73,SSW,202,11.0,23.0,37,0.00,,,0.01,738,Wunderground v.1.15,2013-09-09 18:40:00,
2013-09-09 13:50:00,95.9,66.2,29.73,South,169,12.0,23.0,38,0.00,,,0.01,737,Wunderground v.1.15,2013-09-09 18:50:00,
2013-09-09 14:01:00,96.0,66.3,29.72,SSE,161,13.0,23.0,38,0.00,,,0.01,735,Wunderground v.1.15,2013-09-09 19:01:00,
2013-09-09 14:11:00,96.6,66.1,29.72,SW,233,12.0,24.0,37,0.00,,,0.01,726,Wunderground v.1.15,2013-09-09 19:11:00,
2013-09-09 14:20:00,96.5,66.0,29.72,SSW,195,12.0,22.0,37,0.00,,,0.01,715,Wunderground v.1.15,2013-09-09 19:20:00,
2013-09-09 14:30:00,96.1,64.8,29.72,South,182,14.0,14.0,36,0.00,,,0.01,710,Wunderground v.1.15,2013-09-09 19:30:00,
2013-09-09 14:41:00,97.0,66.4,29.71,SSE,166,12.0,24.0,37,0.00,,,0.01,694,Wunderground v.1.15,2013-09-09 19:41:00,
2013-09-09 14:51:00,96.7,65.4,29.71,SSW,200,13.0,22.0,36,0.00,,,0.01,679,Wunderground v.1.15,2013-09-09 19:51:00,
2013-09-09 15:00:00,96.5,66.0,29.71,SSE,167,13.0,13.0,37,0.00,,,0.01,666,Wunderground v.1.15,2013-09-09 20:00:00,
2013-09-09 15:11:00,96.6,64.5,29.70,South,187,16.0,16.0,35,0.00,,,0.01,654,Wunderground v.1.15,2013-09-09 20:11:00,
2013-09-09 15:21:00,96.8,63.8,29.70,SSW,194,15.0,26.0,34,0.00,,,0.01,636,Wunderground v.1.15,2013-09-09 20:21:00,
2013-09-09 15:31:00,97.2,64.2,29.70,South,191,14.0,29.0,34,0.00,,,0.01,613,Wunderground v.1.15,2013-09-09 20:31:00,
2013-09-09 15:40:00,96.8,63.8,29.70,SW,222,16.0,24.0,34,0.00,,,0.01,594,Wunderground v.1.15,2013-09-09 20:40:00,
2013-09-09 15:50:00,96.6,64.5,29.70,South,189,16.0,16.0,35,0.00,,,0.01,570,Wunderground v.1.15,2013-09-09 20:50:00,
2013-09-09 16:01:00,96.5,65.2,29.70,South,189,16.0,27.0,36,0.00,,,0.01,548,Wunderground v.1.15,2013-09-09 21:01:00,
2013-09-09 16:11:00,96.4,65.1,29.70,SW,217,15.0,15.0,36,0.00,,,0.01,527,Wunderground v.1.15,2013-09-09 21:11:00,
2013-09-09 16:20:00,96.2,65.7,29.70,SSW,201,14.0,25.0,37,0.00,,,0.01,501,Wunderground v.1.15,2013-09-09 21:20:00,
2013-09-09 16:31:00,96.7,64.5,29.70,South,185,13.0,13.0,35,0.00,,,0.01,475,Wunderground v.1.15,2013-09-09 21:31:00,
2013-09-09 16:41:00,96.1,64.0,29.70,SW,219,15.0,26.0,35,0.00,,,0.01,446,Wunderground v.1.15,2013-09-09 21:41:00,
2013-09-09 16:51:00,96.0,64.7,29.70,South,188,15.0,30.0,36,0.00,,,0.01,420,Wunderground v.1.15,2013-09-09 21:51:00,
2013-09-09 17:00:00,95.7,63.7,29.70,SSW,212,15.0,15.0,35,0.00,,,0.01,392,Wunderground v.1.15,2013-09-09 22:00:00,
2013-09-09 17:11:00,95.7,62.8,29.71,South,170,14.0,24.0,34,0.00,,,0.01,364,Wunderground v.1.15,2013-09-09 22:11:00,
2013-09-09 17:21:00,95.3,63.3,29.71,South,183,16.0,26.0,35,0.00,,,0.01,336,Wunderground v.1.15,2013-09-09 22:21:00,
2013-09-09 17:31:00,95.0,63.1,29.71,South,186,14.0,14.0,35,0.00,,,0.01,169,Wunderground v.1.15,2013-09-09 22:31:00,
2013-09-09 17:40:00,94.8,63.7,29.71,WSW,240,14.0,14.0,36,0.00,,,0.01,206,Wunderground v.1.15,2013-09-09 22:40:00,
2013-09-09 17:51:00,94.6,63.5,29.70,SSW,200,14.0,14.0,36,0.00,,,0.01,246,Wunderground v.1.15,2013-09-09 22:51:00,
2013-09-09 18:01:00,94.3,64.0,29.71,SSW,198,14.0,14.0,37,0.00,,,0.01,216,Wunderground v.1.15,2013-09-09 23:01:00,
2013-09-09 18:11:00,93.9,65.2,29.71,SSW,210,13.0,25.0,39,0.00,,,0.01,183,Wunderground v.1.15,2013-09-09 23:11:00,
2013-09-09 18:20:00,93.4,65.5,29.71,SSW,202,14.0,14.0,40,0.00,,,0.01,40,Wunderground v.1.15,2013-09-09 23:20:00,
2013-09-09 18:31:00,92.9,65.0,29.71,SSW,212,12.0,12.0,40,0.00,,,0.01,35,Wunderground v.1.15,2013-09-09 23:31:00,
2013-09-09 18:41:00,92.4,64.6,29.71,South,176,12.0,12.0,40,0.00,,,0.01,32,Wunderground v.1.15,2013-09-09 23:41:00,
2013-09-09 18:51:00,91.7,64.7,29.71,South,182,11.0,11.0,41,0.00,,,0.01,28,Wunderground v.1.15,2013-09-09 23:51:00,
2013-09-09 19:00:00,90.8,65.9,29.71,SSW,194,10.0,10.0,44,0.00,,,0.01,25,Wunderground v.1.15,2013-09-10 00:00:00,
2013-09-09 19:11:00,89.9,66.3,29.71,SSW,193,8.0,8.0,46,0.00,,,0.01,19,Wunderground v.1.15,2013-09-10 00:11:00,
2013-09-09 19:21:00,89.1,66.9,29.72,South,178,8.0,8.0,48,0.00,,,0.01,12,Wunderground v.1.15,2013-09-10 00:21:00,
2013-09-09 19:30:00,88.4,66.2,29.72,South,171,8.0,8.0,48,0.00,,,0.01,7,Wunderground v.1.15,2013-09-10 00:30:00,
2013-09-09 19:41:00,87.8,65.7,29.72,SSW,193,9.0,14.0,48,0.00,,,0.01,0,Wunderground v.1.15,2013-09-10 00:41:00,
2013-09-09 19:51:00,87.1,65.0,29.73,SSW,193,7.0,13.0,48,0.00,,,0.01,0,Wunderground v.1.15,2013-09-10 00:51:00,
2013-09-09 20:00:00,86.7,65.3,29.73,South,188,8.0,13.0,49,0.00,,,0.01,0,Wunderground v.1.15,2013-09-10 01:00:00,
2013-09-09 20:11:00,85.9,65.7,29.73,South,175,7.0,13.0,51,0.00,,,0.01,0,Wunderground v.1.15,2013-09-10 01:11:00,
2013-09-09 20:21:00,85.2,65.6,29.74,South,187,7.0,7.0,52,0.00,,,0.01,0,Wunderground v.1.15,2013-09-10 01:21:00,
2013-09-09 20:30:00,84.6,65.6,29.74,SSE,161,6.0,6.0,53,0.00,,,0.01,0,Wunderground v.1.15,2013-09-10 01:30:00,
2013-09-09 20:41:00,84.2,65.2,29.74,SSW,209,6.0,12.0,53,0.00,,,0.01,0,Wunderground v.1.15,2013-09-10 01:41:00,
2013-09-09 20:51:00,83.8,65.4,29.74,South,187,6.0,6.0,54,0.00,,,0.01,0,Wunderground v.1.15,2013-09-10 01:51:00,
2013-09-09 21:00:00,83.5,65.6,29.75,SSW,202,6.0,10.0,55,0.00,,,0.01,0,Wunderground v.1.15,2013-09-10 02:00:00,
2013-09-09 21:11:00,83.4,65.5,29.75,SSE,165,7.0,7.0,55,0.00,,,0.01,0,Wunderground v.1.15,2013-09-10 02:11:00,
2013-09-09 21:21:00,83.0,66.2,29.75,SSW,199,7.0,13.0,57,0.00,,,0.01,0,Wunderground v.1.15,2013-09-10 02:21:00,
2013-09-09 21:31:00,82.5,66.2,29.75,South,173,6.0,12.0,58,0.00,,,0.01,0,Wunderground v.1.15,2013-09-10 02:31:00,
2013-09-09 21:40:00,82.0,66.3,29.75,South,173,6.0,11.0,59,0.00,,,0.01,0,Wunderground v.1.15,2013-09-10 02:40:00,
2013-09-09 21:50:00,81.6,66.4,29.75,SSW,196,6.0,6.0,60,0.00,,,0.01,0,Wunderground v.1.15,2013-09-10 02:50:00,
2013-09-09 22:01:00,81.1,66.4,29.76,South,180,4.0,4.0,61,0.00,,,0.01,0,Wunderground v.1.15,2013-09-10 03:01:00,
2013-09-09 22:11:00,80.8,66.1,29.76,South,182,5.0,5.0,61,0.00,,,0.01,0,Wunderground v.1.15,2013-09-10 03:11:00,
2013-09-09 22:21:00,80.7,66.0,29.76,SSW,193,5.0,8.0,61,0.00,,,0.01,0,Wunderground v.1.15,2013-09-10 03:21:00,
2013-09-09 22:30:00,81.5,65.8,29.76,South,177,7.0,7.0,59,0.00,,,0.01,0,Wunderground v.1.15,2013-09-10 03:30:00,
2013-09-09 22:40:00,82.2,65.4,29.77,SSW,202,8.0,16.0,57,0.00,,,0.01,0,Wunderground v.1.15,2013-09-10 03:40:00,
2013-09-09 22:50:00,82.1,65.4,29.77,SSW,211,8.0,16.0,57,0.00,,,0.01,0,Wunderground v.1.15,2013-09-10 03:50:00,
2013-09-09 23:01:00,81.7,65.5,29.77,South,182,8.0,8.0,58,0.00,,,0.01,0,Wunderground v.1.15,2013-09-10 04:01:00,
2013-09-09 23:11:00,81.5,65.3,29.77,South,184,8.0,8.0,58,0.00,,,0.01,0,Wunderground v.1.15,2013-09-10 04:11:00,
2013-09-09 23:20:00,81.3,65.1,29.77,SSW,205,8.0,13.0,58,0.00,,,0.01,0,Wunderground v.1.15,2013-09-10 04:20:00,
2013-09-09 23:31:00,80.8,65.1,29.77,SSW,194,7.0,13.0,59,0.00,,,0.01,0,Wunderground v.1.15,2013-09-10 04:31:00,
2013-09-09 23:40:00,80.5,64.9,29.78,SSW,192,8.0,13.0,59,0.00,,,0.01,0,Wunderground v.1.15,2013-09-10 04:40:00,
2013-09-09 23:51:00,80.2,65.1,29.78,SSW,201,7.0,7.0,60,0.00,,,0.01,0,Wunderground v.1.15,2013-09-10 04:51:00,